CW6747 Weather Reports


Display with metric or nautical units.
time (UTC)temp
F
wind
direction
speed
MPH
gust
MPH
rain 1hr
in
rain 24hr
in
rain mn
in
humidity
%
barometer
mb
20260510161527 58 43 4.0 8.0 0.00 0.13 0.08 83 1013.7
20260510160035 58 84 2.0 6.0 0.00 0.13 0.08 83 1013.7
20260510154529 57 84 3.0 6.0 0.00 0.13 0.08 84 1013.9
20260510153030 57 69 3.0 7.0 0.00 0.13 0.08 84 1013.7
20260510151528 58 49 2.0 9.0 0.00 0.13 0.08 82 1013.5
20260510150030 58 61 4.0 10.0 0.00 0.13 0.08 82 1013.4
20260510144534 58 86 5.0 10.0 0.00 0.15 0.08 83 1013.0
20260510143030 59 63 6.0 9.0 0.00 0.15 0.08 83 1012.7
20260510141528 59 24 5.0 10.0 0.00 0.15 0.08 83 1012.4
20260510140030 59 55 4.0 10.0 0.00 0.15 0.08 83 1012.3
20260510134528 60 74 4.0 9.0 0.00 0.16 0.08 83 1012.2
20260510133027 59 38 7.0 11.0 0.01 0.16 0.08 83 1012.2
20260510131527 58 71 5.0 8.0 0.01 0.16 0.08 84 1012.1
20260510130029 57 51 3.0 6.0 0.01 0.16 0.08 88 1012.0
20260510124530 55 53 2.0 5.0 0.01 0.17 0.08 91 1011.9
20260510123030 54 70 1.0 4.0 0.00 0.16 0.07 92 1011.7
20260510121531 53 87 1.0 4.0 0.01 0.16 0.07 93 1011.7
20260510120030 53 355 3.0 6.0 0.01 0.16 0.07 94 1011.9
20260510114536 52 51 3.0 6.0 0.01 0.17 0.07 94 1011.8
20260510113039 52 76 2.0 5.0 0.01 0.17 0.07 95 1011.4
20260510111531 50 0 0.0 2.0 0.01 0.16 0.06 95 1011.2
20260510110035 50 0 0.0 0.0 0.01 0.16 0.06 95 1011.0
20260510104528 49 0 0.0 1.0 0.01 0.17 0.06 94 1010.8
20260510103029 50 90 0.0 2.0 0.01 0.17 0.06 93 1010.7
20260510101529 50 0 1.0 2.0 0.01 0.16 0.05 92 1010.2
20260510100032 50 0 0.0 1.0 0.01 0.16 0.05 91 1009.9
20260510094535 51 0 0.0 0.0 0.01 0.16 0.05 91 1009.7
20260510093030 51 0 0.0 1.0 0.02 0.16 0.05 90 1009.4
20260510091527 51 0 0.0 3.0 0.01 0.15 0.04 89 1009.4
20260510090030 52 0 0.0 1.0 0.01 0.15 0.04 88 1009.4
20260510084529 52 0 0.0 4.0 0.02 0.15 0.04 88 1009.4
20260510083026 52 32 2.0 7.0 0.01 0.14 0.03 89 1009.3
20260510081936 52 15 2.0 6.0 0.02 0.14 0.03 90 1009.3
20260510080027 52 15 2.0 8.0 0.02 0.14 0.03 90 1009.4
20260510074536 52 40 2.0 5.0 0.01 0.13 0.02 91 1009.4
20260510073030 52 344 2.0 8.0 0.01 0.13 0.02 91 1009.7
20260510071529 51 0 0.0 2.0 0.00 0.12 0.01 90 1009.8
20260510070033 52 70 2.0 4.0 0.00 0.12 0.01 89 1010.0
20260510064526 52 23 1.0 3.0 0.01 0.12 0.01 86 1009.8
20260510063030 53 114 0.0 3.0 0.01 0.12 0.01 84 1009.3
20260510061530 53 286 1.0 6.0 0.01 0.12 0.01 82 1009.3
20260510060033 53 71 1.0 4.0 0.01 0.12 0.01 82 1009.3
20260510054531 53 0 0.0 3.0 0.00 0.11 0.00 83 1009.7
20260510053029 53 28 1.0 6.0 0.00 0.11 0.00 82 1009.8
20260510051528 55 312 0.0 3.0 0.00 0.11 0.00 80 1010.2
20260510050028 55 40 2.0 8.0 0.00 0.11 0.00 76 1010.4
20260510044530 55 78 4.0 8.0 0.00 0.11 0.00 76 1010.6
20260510043030 55 56 3.0 8.0 0.00 0.11 0.00 76 1010.7
20260510041537 56 25 2.0 9.0 0.00 0.11 0.00 76 1010.7
20260510040033 56 36 5.0 13.0 0.00 0.11 0.00 76 1010.6
20260510034530 57 33 2.0 7.0 0.00 0.11 0.11 78 1009.5
20260510033028 58 27 3.0 12.0 0.00 0.11 0.11 75 1009.6
20260510031530 58 360 5.0 13.0 0.00 0.11 0.11 74 1008.9
20260510030028 58 350 3.0 10.0 0.00 0.11 0.11 75 1008.5
20260510024527 57 13 2.0 14.0 0.00 0.11 0.11 75 1008.3
20260510023028 57 5 2.0 9.0 0.00 0.11 0.11 76 1008.1
20260510021534 57 19 4.0 10.0 0.00 0.11 0.11 76 1008.1
20260510020031 57 329 0.0 9.0 0.00 0.11 0.11 76 1008.1
20260510014533 56 5 4.0 11.0 0.00 0.11 0.11 77 1008.1
20260510013037 56 0 2.0 4.0 0.00 0.11 0.11 76 1008.1
20260510011530 56 22 1.0 5.0 0.00 0.11 0.11 76 1008.1
20260510010029 56 310 0.0 6.0 0.00 0.11 0.11 76 1007.6
20260510004528 57 340 2.0 10.0 0.00 0.11 0.11 74 1007.5
20260510003028 57 349 2.0 11.0 0.00 0.11 0.11 74 1007.5
20260510001539 57 334 3.0 9.0 0.00 0.11 0.11 75 1007.4
20260510000028 58 340 2.0 10.0 0.00 0.11 0.11 75 1007.3
20260509234527 59 5 2.0 10.0 0.00 0.11 0.11 76 1006.9
20260509233028 59 314 3.0 13.0 0.00 0.11 0.11 76 1007.0
20260509231528 60 10 2.0 16.0 0.00 0.11 0.11 74 1006.7
20260509230028 61 329 2.0 11.0 0.00 0.11 0.11 74 1006.7
20260509224528 61 355 6.0 16.0 0.00 0.11 0.11 74 1006.9
20260509223030 59 348 6.0 13.0 0.00 0.11 0.11 76 1007.2
20260509221530 61 0 2.0 12.0 0.00 0.11 0.11 75 1007.2
20260509220027 61 346 3.0 9.0 0.00 0.11 0.11 76 1007.1
20260509214537 61 285 3.0 11.0 0.00 0.11 0.11 76 1007.1
20260509213030 61 9 5.0 14.0 0.00 0.11 0.11 74 1007.2
20260509211528 62 340 6.0 12.0 0.00 0.11 0.11 74 1007.3
20260509210033 60 19 7.0 14.0 0.00 0.11 0.11 76 1007.2
20260509204537 59 5 5.0 16.0 0.00 0.12 0.11 79 1007.4
20260509203033 58 18 8.0 16.0 0.00 0.12 0.11 79 1007.8
20260509201528 59 40 11.0 22.0 0.00 0.12 0.11 76 1007.7
20260509200038 59 26 5.0 16.0 0.00 0.12 0.11 83 1007.9
20260509194537 58 23 5.0 12.0 0.00 0.12 0.11 84 1008.2
20260509193038 55 5 6.0 11.0 0.00 0.12 0.11 85 1008.5
20260509191529 53 15 7.0 13.0 0.01 0.12 0.11 87 1008.6
20260509190028 53 16 5.0 11.0 0.01 0.12 0.11 87 1008.7
20260509184533 53 50 9.0 14.0 0.01 0.12 0.11 87 1008.8
20260509183031 53 327 9.0 16.0 0.02 0.12 0.11 87 1008.7
20260509181529 53 339 7.0 16.0 0.01 0.11 0.10 87 1008.7
20260509180028 53 355 6.0 16.0 0.02 0.11 0.10 87 1008.7
20260509174530 53 44 7.0 15.0 0.03 0.12 0.10 88 1008.6
20260509173027 53 265 4.0 12.0 0.02 0.11 0.09 88 1008.6
20260509171533 53 355 7.0 15.0 0.03 0.11 0.09 89 1008.6
20260509170028 52 34 3.0 13.0 0.02 0.10 0.08 89 1008.5
20260509164528 52 265 3.0 15.0 0.01 0.09 0.07 88 1008.6
20260509163030 52 5 10.0 16.0 0.01 0.09 0.07 87 1008.5